Overview Statistics Trail Chart Weather Telemetry Raw packets
 

This is the latest recevied weather packets stored in our database for station/object KR4KUV. If no packets are shown the sender has not sent any weather packets the latest 10 day(s).

<< 4 5 6 7 8 9 10 >>
Time Temp. Humidity Pressure Rain* Wind** Luminosity Snow
1788531431 28.33° C 82% 1019.8 hPa 0 mm - 66 W/m² -
1788531127 28.33° C 83% 1019.7 hPa 0 mm - 83 W/m² -
1788530823 27.78° C 82% 1019.5 hPa 0 mm - 62 W/m² -
1788530518 27.78° C 83% 1019.5 hPa 0 mm - 62 W/m² -
1788530216 27.78° C 84% 1019.5 hPa 0 mm - 65 W/m² -
1788529912 27.78° C 84% 1019.5 hPa 0 mm - 72 W/m² -
1788529608 27.78° C 84% 1019.6 hPa 0 mm - 58 W/m² -
1788529307 27.22° C 84% 1019.5 hPa 0 mm - 57 W/m² -
1788529002 27.22° C 84% 1019.5 hPa 0 mm - 57 W/m² -
1788528698 27.22° C 85% 1019.5 hPa 0 mm - 55 W/m² -
1788528397 27.22° C 86% 1019.5 hPa 0 mm - 54 W/m² -
1788528092 27.22° C 87% 1019.7 hPa 0 mm - 52 W/m² -
1788527792 26.67° C 87% 1019.7 hPa 0 mm - 51 W/m² -
1788527488 26.67° C 88% 1019.7 hPa 0 mm - 51 W/m² -
1788527187 26.11° C 88% 1019.6 hPa 0 mm - 49 W/m² -
1788526882 26.11° C 89% 1019.6 hPa 0 mm - 49 W/m² -
1788526578 25.56° C 90% 1019.7 hPa 0 mm - 47 W/m² -
1788526273 25.56° C 91% 1019.7 hPa 0 mm - 46 W/m² -
1788525968 25° C 94% 1019.8 hPa 0 mm - 52 W/m² -
1788525663 24.44° C 97% 1019.7 hPa 0 mm - 44 W/m² -
1788525358 23.89° C 99% 1019.8 hPa 0 mm - 42 W/m² -
1788525053 23.89° C 99% 1019.9 hPa 0 mm - 41 W/m² -
1788524748 23.33° C 99% 1019.7 hPa 0 mm - 40 W/m² -
1788524443 23.33° C 99% 1019.8 hPa 0 mm - 46 W/m² -
1788524138 23.33° C 99% 1019.8 hPa 0 mm - 37 W/m² -

* Rain latest hour (hover to see other rain measurements)
** Current wind speed in m/s (hover to see current wind gust speed)